Regional Weather Roundup
Issued by NWS Upton, NY

Current Version | Previous Version | Text Only | Print | Product List | Glossary On
Versions: 1 2 3 4 5 6 7 8 9 10 11 12 13 14 15 16 17 18 19 20 21 22 23 24 25 26 27 28
000 ASUS41 KOKX 261308 RWROKX REGIONAL WEATHER ROUNDUP NATIONAL WEATHER SERVICE NEW YORK NY 900 AM EDT TUE SEP 26 2017 NOTE: "FAIR" INDICATES FEW OR NO CLOUDS BELOW 12,000 FEET WITH NO SIGNIFICANT WEATHER AND/OR OBSTRUCTIONS TO VISIBILITY. NYZ071-072-176-178-NJZ106-104-261400- NEW YORK CITY METRO AREA CITY SKY/WX TMP DP RH WIND PRES REMARKS Central Park CLOUDY 71 66 84 SE6 30.08S Bronx Bot Gard N/A 70 64 83 E3 30.07R LaGuardia APRT CLOUDY 71 68 90 NE8 30.05R Kennedy INTL DRIZZLE 69 67 93 NE3 30.06S FOG Breezy Point N/A 66 N/A N/A E6 N/A Newark/Liberty PTSUNNY 73 67 81 E5 30.05R Teterboro PTSUNNY 71 67 87 E3 30.05R HAZE $$ NYZ177-179-078>081-261400- LONG ISLAND NEW YORK CITY SKY/WX TMP DP RH WIND PRES REMARKS Jones Beach N/A 66 N/A N/A E6 N/A Matinecock PT N/A 68 N/A N/A E8 N/A Farmingdale CLOUDY 68 66 93 CALM 30.06R MacArthur/ISP CLOUDY 67 67 100 CALM 30.06R FOG Shirley CLOUDY 70 68 93 VRB3 30.07R Mt Sinai Harb N/A N/A N/A N/A NE2 N/A Westhampton FOG 67 66 97 N3 30.08S VSB 3/4 East Hampton CLOUDY 66 66 98 CALM 30.06R Montauk N/A 69 68 96 CALM 30.08R $$ NYZ052-065-067-261400- HUDSON VALLEY CITY SKY/WX TMP DP RH WIND PRES REMARKS White Plains PTSUNNY 67 66 97 E5 30.06R FOG Larchmont Harb N/A 68 N/A N/A NE6 N/A Croton On Huds N/A 70 N/A N/A E1 N/A Newburgh MOSUNNY 72 66 83 CALM 30.07S Montgomery MOSUNNY 69 66 90 SW3 30.05S Poughkeepsie MOSUNNY 71 65 81 CALM 30.04S Albany CLOUDY 72 67 84 SW3 30.06R $$ NJZ001-105-106-008-010-013-015-019>022-104-261400- NEW JERSEY CITY SKY/WX TMP DP RH WIND PRES REMARKS Newark/Liberty PTSUNNY 73 67 81 E5 30.05R Teterboro PTSUNNY 71 67 87 E3 30.05R HAZE Caldwell MOSUNNY 70 68 93 E5 30.07R Somerville NOT AVBL Linden FAIR 70 66 86 CALM 30.05 FOG Perth Amboy N/A 70 N/A N/A NE3 N/A Sussex SUNNY 68 66 93 CALM 30.06S Andover N/A 69 66 90 CALM 30.07R Trenton CLOUDY 69 67 93 NE6 30.05R Millville CLOUDY 70 68 93 NE12 30.03R Atlantic City CLOUDY 69 68 96 NE9 30.03S FOG Wrightstown CLOUDY 67 67 97 N8 30.02S Toms River CLOUDY 68 67 96 E3 30.06R FOG Belmar CLOUDY 67 66 97 NE9 30.07R $$ PAZ047>061-062-071-261400- EASTERN PENNSYLVANIA CITY SKY/WX TMP DP RH WIND PRES REMARKS Philadelphia CLOUDY 70 66 87 NE8 30.05R Allentown MOSUNNY 71 65 81 NE3 30.06R Scranton SUNNY 72 64 76 E3 30.07F $$ CTZ002-004>006-009-010-012-RIZ004-006-007-MAZ004-011-015-261400- SOUTHERN NEW ENGLAND IN CT CITY SKY/WX TMP DP RH WIND PRES REMARKS Bradley INTL FOG 67 65 93 CALM 30.06R VSB 1/2 Hartford CLOUDY 66 66 100 CALM 30.05S FOG Danbury FOG 67 66 97 CALM 30.08R VSB 1 Wtrbury/Oxford FOG 65 65 100 CALM 30.08R VSB 1 Norwalk Harbor N/A 66 N/A N/A E2 N/A Bridgeport CLOUDY 69 67 93 E3 30.06R FOG Meriden CLOUDY 64 64 100 CALM 30.06S New Haven FOG 68 67 96 CALM 30.06R VSB 1 Chester FOG 68 68 100 CALM 30.07R VSB 1/4 Groton FOG 68 66 93 CALM 30.06R VSB 1 Wilimantic CLOUDY 67 67 100 CALM 30.06S IN RI CITY SKY/WX TMP DP RH WIND PRES REMARKS Providence CLOUDY 70 69 97 CALM 30.06R Block Island PTSUNNY 67 67 100 SE3 30.08R Westerly PTSUNNY 68 67 96 CALM 30.07R IN MA CITY SKY/WX TMP DP RH WIND PRES REMARKS Boston FOG 68 68 100 W3 30.05S VSB 1/2 Worcester MOSUNNY 71 64 78 E3 30.08R Westfield FOG 66 66 100 CALM 30.06S VSB 1/8 Provincetown FOG 65 64 97 CALM 30.06R VSB 1/4 Nantucket FOG 67 67 100 W5 30.05S VSB 3/4 $$ ANZ330-335-338-340-345-350-353-355-261400- COASTAL MARINE OBSERVATIONS STATION/POSITION TIME SKY/WX TEMP WIND PRES VSBY WAVE AIR SEA DIR/SP/G HT/PER (UTC) (F) (DEG/KT/KT) (MB) (MI) (FT/S) NY HARB ENTRANCE 1150 67 72 40/ 8/ 10 1016.8 5/12 20 S FIRE ISLAND 1150 65 69 70/ 10/ 12 1017.4 7/15 GREAT SOUTH BAY 1230 66 73 60/ 2/ 6 N/A 23 SSW MONTAUK P 1150 64 65 1017.9 9/14 15 E BARNEGAT LI 1230 69 N/A 6/13 HUDSON CANYON 1150 66 69 60/ 10/ 12 1016.0 12/15 KINGS POINT 1236 69 72 130/ 3/ 7 1018.4 EXECUTION ROCKS 1245 70 70/ 6/ 10 N/A WESTERN LI SOUND NOT AVBL CENTRAL LI SOUND NOT AVBL EASTERN LI SOUND NOT AVBL ROBBINS REEF 1248 70 90/ 5/ 7 1018.3 $$ >>>>>>>>>>>>>>>>>>>>>>>>>>>> KEY <<<<<<<<<<<<<<<<<<<<<<<<<<< > < > SKY/WX - Sky Condition/Present Weather < > TMP - Temperature in Fahrenheit < > DP - Dew Point in Fahrenheit < > RH - Relative Humidity in Percent < > WIND - Direction (from) and Speed in MPH < > PRES - Mean Sea Level Pressure (inches of Hg) < > WCI - Wind Chill Index < > VSB - VISIBILITY IN MILES < > HX - HEAT INDEX < > TC - TEMPERATURE IN CELSIUS < > VRB - VARIABLE WIND DIRECTION < > < >>>>>>>>>>>>>>>>>>>>>>>>>>>> KEY <<<<<<<<<<<<<<<<<<<<<<<<<<<

USA.gov is the U.S. government's official web portal to all federal, state and local government web resources and services.